Location: Unspecified
(41.5000°N, 0.0000°E)
Time: 15:07:07
(UTC+00:00)

Courier 1B Rocket - Pass Details

Date: 30 June 2019
Orbit: 920 x 1202 km, 28.2° (Epoch: 15 July)

Event Time Altitude Azimuth Distance (km) Brightness Sun altitude
Rises 05:01:16 0° 257° (WSW) 3,942 7.5 4.4°
Reaches altitude 10° 05:04:57 10° 241° (WSW) 2,928 6.9 5.0°
Maximum altitude 05:09:47 20° 198° (SSW) 2,232 6.6 5.8°
Drops below altitude 10° 05:14:24 10° 155° (SSE) 2,780 7.4 6.6°
Sets 05:17:47 0° 138° (SE) 3,678 8.3 7.1°
